Fremont, MI

8:22 PM EST on November 15, 2019 (GMT -0500)
Fremont

Weather History for KFFX - September, 2019

Change the Weather History Date:

Thursday, September 5, 2019

  Actual Average (WUND) Record (WUND)
Temperature  
Mean Temperature 57 °F -  
Max Temperature 71 °F - - (-1)
Min Temperature 43 °F - - (-1)
Degree Days  
Heating Degree Days 8    
Growing Degree Days 7 (Base 50)    
Moisture  
Dew Point 44 °F    
Average Humidity 65    
Maximum Humidity 93    
Minimum Humidity 29    
Precipitation  
Precipitation 0.00 in - - ()
Sea Level Pressure  
Sea Level Pressure 30.13 in    
Wind  
Wind Speed 1 mph ()    
Max Wind Speed 9 mph    
Max Gust Speed -    
Visibility 10.0 miles    
Events Rain    
Averages and records for this station are not official NWS values.
T = Trace of Precipitation, MM = Missing Value Source: Averaged Metar Reports

Daily Weather History Graph

Daily Weather History Graph

Search for Another Location

Airport or City:

Astronomy

Sep. 05, 2019 Rise Set
Actual Time 7:12 AM EDT 8:12 PM EDT
Civil Twilight 6:42 AM EDT 8:41 PM EDT
Nautical Twilight 6:07 AM EDT 9:16 PM EDT
Astronomical Twilight 5:31 AM EDT 9:52 PM EDT
Moon 2:30 PM EDT (9/5) No Moon Set
Length of Visible Light 13h 58m
Length of Day
13h 00m
Waxing Crescent, 45% of the Moon is Illuminated
Sep 5
Waxing Crescent
Sep 5
First Quarter
Sep 14
Full
Sep 21
Last Quarter
Sep 28
New

Hourly Weather History & Observations

Time (EDT) Temp. Windchill Dew Point Humidity Pressure Visibility Wind Dir Wind Speed Gust Speed Precip Events Conditions
12:15 AM 49.8 °F - 47.3 °F 91% 30.17 in 10.0 mi Calm Calm - N/A   Clear
12:16 AM 49.6 °F - 47.3 °F 92% 30.17 in 10.0 mi Calm Calm - N/A   Clear
12:35 AM 49.6 °F - 47.7 °F 93% 30.17 in 10.0 mi Calm Calm - N/A   Clear
12:40 AM 48.7 °F - 45.9 °F 90% 30.17 in 10.0 mi Calm Calm - N/A   Clear
12:58 AM 48.2 °F - 46.2 °F 93% 30.17 in 10.0 mi Calm Calm - N/A   Clear
1:16 AM 47.8 °F - 45.5 °F 92% 30.17 in 10.0 mi Calm Calm - N/A   Clear
1:35 AM 47.3 °F - 45.5 °F 93% 30.16 in 10.0 mi Calm Calm - N/A   Clear
1:55 AM 47.7 °F - 45.9 °F 93% 30.16 in 10.0 mi Calm Calm - N/A   Clear
1:56 AM 47.5 °F - 45.7 °F 93% 30.16 in 10.0 mi Calm Calm - N/A   Clear
2:19 AM 46.0 °F - 44.2 °F 93% 30.16 in 10.0 mi Calm Calm - N/A   Clear
2:37 AM 46.2 °F - 44.4 °F 93% 30.16 in 10.0 mi Calm Calm - N/A   Clear
2:55 AM 45.5 °F - 43.7 °F 93% 30.16 in 10.0 mi Calm Calm - N/A   Clear
3:15 AM 45.9 °F - 44.1 °F 93% 30.16 in 10.0 mi Calm Calm - N/A   Clear
3:35 AM 45.5 °F - 43.7 °F 93% 30.16 in 10.0 mi Calm Calm - N/A   Clear
3:40 AM 45.5 °F - 43.3 °F 92% 30.16 in 10.0 mi Calm Calm - N/A   Clear
3:58 AM 44.6 °F - 42.8 °F 93% 30.16 in 10.0 mi Calm Calm - N/A   Clear
4:16 AM 44.6 °F 42.2 °F 42.8 °F 93% 30.16 in 10.0 mi NNW 4.6 mph - N/A   Clear
4:35 AM 44.6 °F 43.1 °F 42.6 °F 93% 30.17 in 10.0 mi North 3.5 mph - N/A   Clear
4:55 AM 44.6 °F - 42.8 °F 93% 30.17 in 10.0 mi Calm Calm - N/A   Clear
5:19 AM 44.2 °F 42.7 °F 42.3 °F 93% 30.18 in 10.0 mi North 3.5 mph - N/A   Clear
5:37 AM 44.1 °F - 42.3 °F 93% 30.18 in 10.0 mi Calm Calm - N/A   Clear
5:55 AM 44.2 °F - 42.3 °F 93% 30.18 in 10.0 mi Calm Calm - N/A   Clear
6:15 AM 45.1 °F - 43.2 °F 93% 30.18 in 10.0 mi Calm Calm - N/A   Clear
6:35 AM 44.4 °F - 42.6 °F 93% 30.18 in 10.0 mi Calm Calm - N/A   Clear
6:58 AM 44.2 °F - 42.3 °F 93% 30.19 in 10.0 mi Calm Calm - N/A   Clear
7:16 AM 44.1 °F - 41.9 °F 92% 30.20 in 10.0 mi Calm Calm - N/A   Clear
7:35 AM 43.7 °F - 41.2 °F 91% 30.20 in 10.0 mi Calm Calm - N/A   Clear
7:55 AM 44.6 °F - 42.8 °F 93% 30.19 in 10.0 mi Calm Calm - N/A   Clear
7:56 AM 44.8 °F - 43.0 °F 93% 30.19 in 10.0 mi Calm Calm - N/A   Clear
8:19 AM 47.8 °F - 46.0 °F 93% 30.19 in 10.0 mi Calm Calm - N/A   Clear
8:37 AM 51.1 °F - 49.1 °F 93% 30.18 in 10.0 mi Calm Calm - N/A   Clear
8:55 AM 53.1 °F - 49.6 °F 88% 30.18 in 10.0 mi Calm Calm - N/A   Clear
9:15 AM 54.7 °F - 47.3 °F 76% 30.19 in 10.0 mi ESE 3.5 mph - N/A   Clear
9:35 AM 56.5 °F - 45.3 °F 66% 30.19 in 10.0 mi ESE 3.5 mph - N/A   Clear
9:39 AM 56.8 °F - 45.3 °F 65% 30.19 in 10.0 mi Calm Calm - N/A   Clear
9:58 AM 58.5 °F - 43.0 °F 56% 30.20 in 10.0 mi Calm Calm - N/A   Clear
10:16 AM 60.1 °F - 41.2 °F 50% 30.20 in 10.0 mi Calm Calm - N/A   Clear
10:35 AM 61.0 °F - 37.6 °F 42% 30.20 in 10.0 mi East 3.5 mph - N/A   Clear
10:55 AM 61.9 °F - 36.7 °F 39% 30.19 in 10.0 mi East 3.5 mph - N/A   Clear
10:56 AM 61.9 °F - 36.7 °F 39% 30.19 in 10.0 mi Calm Calm - N/A   Clear
11:19 AM 63.5 °F - 36.1 °F 36% 30.19 in 10.0 mi Calm Calm - N/A   Clear
11:37 AM 63.9 °F - 36.1 °F 36% 30.18 in 10.0 mi Calm Calm - N/A   Clear
11:55 AM 64.9 °F - 35.1 °F 33% 30.18 in 10.0 mi Calm Calm - N/A   Clear
11:56 AM 65.1 °F - 35.4 °F 33% 30.18 in 10.0 mi Calm Calm - N/A   Clear
12:15 PM 65.7 °F - 36.9 °F 35% 30.19 in 10.0 mi Calm Calm - N/A   Clear
12:35 PM 65.3 °F - 37.9 °F 36% 30.20 in 10.0 mi SSE 3.5 mph - N/A   Clear
12:58 PM 66.6 °F - 38.8 °F 36% 30.20 in 10.0 mi North 3.5 mph - N/A   Clear
1:16 PM 67.1 °F - 36.9 °F 33% 30.19 in 10.0 mi Calm Calm - N/A   Clear
1:35 PM 67.3 °F - 38.8 °F 35% 30.19 in 10.0 mi North 3.5 mph - N/A   Clear
1:55 PM 67.8 °F - 37.2 °F 32% 30.18 in 10.0 mi NW 5.8 mph - N/A   Clear
2:19 PM 67.8 °F - 35.6 °F 30% 30.16 in 10.0 mi ESE 3.5 mph - N/A   Clear
2:37 PM 69.6 °F - 36.0 °F 29% 30.15 in 10.0 mi Calm Calm - N/A   Clear
2:55 PM 68.7 °F - 36.9 °F 31% 30.15 in 10.0 mi Calm Calm - N/A   Clear
2:56 PM 68.7 °F - 36.9 °F 31% 30.15 in 10.0 mi Calm Calm - N/A   Clear
3:15 PM 69.4 °F - 38.7 °F 32% 30.14 in 10.0 mi Calm Calm - N/A   Clear
3:16 PM 69.4 °F - 38.8 °F 33% 30.14 in 10.0 mi Calm Calm - N/A   Clear
3:35 PM 69.8 °F - 37.9 °F 31% 30.13 in 10.0 mi SW 3.5 mph - N/A   Clear
3:40 PM 70.5 °F - 38.3 °F 31% 30.13 in 10.0 mi West 3.5 mph - N/A   Clear
3:58 PM 70.2 °F - 39.9 °F 33% 30.12 in 10.0 mi NNE 4.6 mph - N/A   Clear
4:16 PM 70.2 °F - 40.5 °F 34% 30.11 in 10.0 mi Calm Calm - N/A   Clear
4:35 PM 71.2 °F - 41.2 °F 34% 30.09 in 10.0 mi Calm Calm - N/A   Clear
4:55 PM 70.7 °F - 41.0 °F 34% 30.09 in 10.0 mi Calm Calm - N/A   Clear
5:19 PM 70.9 °F - 40.1 °F 33% 30.08 in 10.0 mi South 6.9 mph - N/A   Clear
5:37 PM 70.5 °F - 39.7 °F 33% 30.08 in 10.0 mi WSW 4.6 mph - N/A   Clear
5:55 PM 70.7 °F - 43.9 °F 38% 30.07 in 10.0 mi SSW 8.1 mph - N/A   Clear
6:15 PM 69.8 °F - 44.2 °F 40% 30.08 in 10.0 mi SW 9.2 mph - N/A   Clear
6:35 PM 69.3 °F - 43.9 °F 40% 30.06 in 10.0 mi SW 4.6 mph - N/A   Clear
6:58 PM 68.7 °F - 44.4 °F 42% 30.08 in 10.0 mi West 6.9 mph - N/A   Clear
7:16 PM 66.4 °F - 45.5 °F 47% 30.07 in 10.0 mi SW 5.8 mph - N/A   Clear
7:35 PM 65.1 °F - 46.0 °F 50% 30.08 in 10.0 mi West 4.6 mph - N/A   Clear
7:55 PM 63.5 °F - 46.6 °F 54% 30.03 in 10.0 mi SSW 6.9 mph - N/A   Clear
8:19 PM 62.2 °F - 45.5 °F 54% 30.02 in 10.0 mi SW 6.9 mph - N/A   Clear
8:37 PM 61.7 °F - 45.7 °F 56% 30.06 in 10.0 mi NW 4.6 mph - N/A   Clear
8:55 PM 61.0 °F - 45.9 °F 58% 30.01 in 10.0 mi SE 6.9 mph - N/A   Clear
8:56 PM 61.0 °F - 45.9 °F 58% 30.00 in 10.0 mi SE 8.1 mph - N/A   Clear
9:15 PM 61.5 °F - 44.8 °F 54% 30.00 in 10.0 mi ESE 3.5 mph - N/A   Clear
9:16 PM 61.5 °F - 44.8 °F 54% 30.01 in 10.0 mi ESE 3.5 mph - N/A   Clear
9:35 PM 60.8 °F - 46.4 °F 59% 30.04 in 10.0 mi West 3.5 mph - N/A   Clear
9:58 PM 60.1 °F - 47.5 °F 63% 30.06 in 10.0 mi Calm Calm - N/A Rain Light Rain
10:16 PM 59.4 °F - 53.1 °F 80% 30.07 in 10.0 mi Calm Calm - N/A Rain Light Rain
10:35 PM 58.8 °F - 54.7 °F 86% 30.07 in 10.0 mi NNE 3.5 mph - N/A Rain Light Rain
10:36 PM 58.6 °F - 54.5 °F 86% 30.07 in 10.0 mi NNE 3.5 mph - N/A Rain Light Rain
10:55 PM 58.3 °F - 54.7 °F 88% 30.06 in 10.0 mi Calm Calm - N/A   Scattered Clouds
10:56 PM 58.3 °F - 54.9 °F 88% 30.06 in 10.0 mi Calm Calm - N/A   Scattered Clouds
11:19 PM 58.1 °F - 53.6 °F 85% 30.03 in 10.0 mi Calm Calm - N/A Rain Light Rain
11:37 PM 57.4 °F - 53.8 °F 88% 30.03 in 10.0 mi Calm Calm - N/A   Mostly Cloudy
11:55 PM 57.9 °F - 54.9 °F 90% 30.03 in 10.0 mi Calm Calm - N/A   Overcast
11:56 PM 58.1 °F - 54.9 °F 89% 30.03 in 10.0 mi Calm Calm - N/A   Overcast